Regional Weather Roundup
Issued by NWS

Home | Current Version | Previous Version | Graphics & Text | Print | Product List | Glossary On
Versions: 1 2 3 4 5 6 7 8 9 10 11 12 13 14 15 16 17 18 19 20 21 22 23 24 25 26 27 28 29 30 31 32 33 34 35 36 37 38 39 40 41 42 43 44 45 46 47 48 49 50
000
ASUS43 KLOT 201110
RWRIL

ILLINOIS REGIONAL WEATHER ROUNDUP
NATIONAL WEATHER SERVICE CHICAGO/ROMEOVILLE IL
600 AM CDT SAT SEP 20 2014

NOTE: "FAIR" INDICATES FEW OR NO CLOUDS BELOW 12,000 FEET WITH NO
SIGNIFICANT WEATHER AND/OR OBSTRUCTIONS TO VISIBILITY.

* THESE STATIONS ARE NOT UNDER NWS QUALITY CONTROL. THEY ALSO MAY NOT
  REPORT WEATHER SUCH AS PRECIPITATION OR FOG.

ILZ001-002-007-009-015-016-024-201200-
NORTHWEST ILLINOIS

CITY           SKY/WX    TMP DP  RH WIND       PRES   REMARKS
MOLINE         CLOUDY    64  59  83 SW7       29.91F
STERLING*      CLOUDY    63  57  82 W3        29.92S
SAVANNA*       LGT RAIN  65  60  85 S5        29.89F
$$

ILZ003-004-008-010-011-017-018-201200-
NORTH CENTRAL ILLINOIS

CITY           SKY/WX    TMP DP  RH WIND       PRES   REMARKS
ROCKFORD       CLOUDY    64  57  78 SW10      29.93F
FREEPORT*      CLOUDY    60  58  94 S6        29.92F
ROCHELLE*      CLOUDY    58  55  91 CALM      29.93S
DE KALB*       CLOUDY    56  53  91 CALM      29.95S
PERU*          MOCLDY    59  56  89 SW3       29.96R
$$

ILZ005-006-012>014-019>023-201200-
NORTHEAST ILLINOIS

CITY           SKY/WX    TMP DP  RH WIND       PRES   REMARKS
CHICAGO-OHARE  CLOUDY    64  53  67 SW12      29.93R
CHICAGO-MIDWAY CLOUDY    64  54  69 SW15      29.93F
AURORA         CLOUDY    56  52  86 SE3       29.95R
LANSING*       MOCLDY    58  53  83 S9        29.96F
JOLIET*        CLOUDY    60  53  77 SW3       29.97R
WAUKEGAN       CLOUDY    63  54  72 SW15G21   29.88S
DUPAGE AIRPORT CLOUDY    60  53  77 S7        29.94R
KANKAKEE*      MOCLDY    57  54  89 S9        29.97F
WHEELING       CLOUDY    65  53  65 SW7       29.94R
MORRIS*        CLOUDY    56  56  97 CALM      29.96R
ROMEOVILLE*    CLOUDY    57  54  89 SW3       29.97R
NORTHERLY ISL    N/A     64  52  64 S8          N/A
$$

LMZ740>746-201200-
SOUTHERN LAKE MICHIGAN

STATION/POSITION SKY/WX   TEMP    WIND        PRES    VSBY  WAVE
                          AIR SEA DIR/SP/G                  HT/PER
                          (F)     (DEG/KT/KT) (MB)    (MI)  (FT/S)
SOUTHERN BUOY              65 64  210/ 17/ 21 1011.6F         4/ 5
WAUKEGAN HARBOR            66     240/ 13/ 19   N/A
HARRISON CRIB              64     200/ 19/ 23   N/A
BURNHAM HARBOR             64     220/  5/ 13   N/A
CALUMET HARBOR             63     200/  9/ 12 1012.4F
MICHIGAN CITY              62     170/ 15/ 21   N/A
MICHIGAN CITY 6N           64 65  200/ 17/ 21   N/A           3/ 4
ST. JOSEPH                 65 65  180/ 17/ 21   N/A           4/ 4
$$

ILZ025>027-034>036-040-047-049-050-058-095>099-201200-
WEST-CENTRAL ILLINOIS

CITY           SKY/WX    TMP DP  RH WIND       PRES   REMARKS
QUINCY         PTCLDY    61  59  93 S8        29.95R
GALESBURG*     MOCLDY    60  58  94 SW3       29.95R
MACOMB*        PTCLDY    62  60  93 S6        29.97R
JACKSONVILLE*  PTCLDY    64  61  90 S5        29.99R
PITTSFIELD*    PTCLDY    64  60  90 S3        29.99R
$$

ILZ028>032-037-038-041>044-048-051>054-059>061-201200-
CENTRAL ILLINOIS

CITY           SKY/WX    TMP DP  RH WIND       PRES   REMARKS
PONTIAC        MOCLDY    61  57  88 S6        29.96F
DECATUR        MOCLDY    58  54  86 S7        30.01R
PEORIA         MOCLDY    60  55  83 S6        29.96R
LACON*         MOCLDY    63  57  82 S7        29.93S
LINCOLN*       PTCLDY    58  56  91 S7        29.97R
SPRINGFIELD    MOCLDY    64  59  83 S8        29.98S
TAYLORVILLE    PTCLDY    55  54  94 S6        30.01R
$$

ILZ033-039-045-046-055>057-062-063-201200-
EAST-CENTRAL ILLINOIS

CITY           SKY/WX    TMP DP  RH WIND       PRES   REMARKS
CHAMPAIGN      MOCLDY    57  54  89 S8        30.01R
DANVILLE*      PTCLDY    55  53  92 S3        30.00R
RANTOUL*       MOCLDY    56  52  87 S3        30.02R
MATTOON        PTCLDY    59  55  87 S6        30.02R
PARIS*         PTCLDY    55  54  97 CALM      30.04R FOG
$$

ILZ079-100>102-201200-
SOUTHWEST ILLINOIS

CITY           SKY/WX    TMP DP  RH WIND       PRES   REMARKS
ALTON          CLEAR     58  57  96 CALM      30.01S
BELLEVILLE     PTCLDY    57  57  99 E1        30.01R
CAHOKIA*       CLEAR     57  56  96 CALM      30.00S
SPARTA*        CLOUDY    57  56  94 SE3       30.03R
$$

ILZ064>066-069>071-074>076-080>082-084>086-088>090-092>094-201200-
SOUTH-CENTRAL ILLINOIS

CITY           SKY/WX    TMP DP  RH WIND       PRES   REMARKS
CARBONDALE     MOCLDY    55  54  96 CALM      30.03S
CAIRO*         FOG       59  57  94 CALM      30.05R VSB 1
EFFINGHAM*     CLEAR     55  53  91 S3        30.02R
MARION         CLOUDY    63  61  94 S5        30.04S
MT. VERNON     CLEAR     52  48  87 CALM      30.04R
CENTRALIA*     CLEAR     58  55  88 CALM      30.03R
SALEM*         CLEAR     56  55  95 CALM      30.03R
METROPOLIS*    FOG       58  58 100 CALM      30.05R VSB 1
$$

ILZ067-068-072-073-078-083-087-091-201200-
SOUTHEAST ILLINOIS

CITY           SKY/WX    TMP DP  RH WIND       PRES   REMARKS
LAWRENCEVILLE  CLEAR     53  52  96 CALM      30.04R FOG
FLORA*         CLEAR     52  52  99 CALM      30.03R FOG
FAIRFIELD*     CLEAR    N/A N/A N/A CALM      30.03S FOG
HARRISBURG*    CLEAR     56  56 100 CALM      30.05S FOG
ROBINSON*      CLEAR     51  51  99 CALM      30.04S FOG
CARMI*         CLEAR     56  56 100 CALM      30.04R FOG
$$

ABBREVIATIONS USED IN REMARKS
   TC - TEMPERATURE IN CELSIUS
  WCI - WIND CHILL INDEX
   HX - HEAT INDEX
  VSB - VISIBILITY
$$




USA.gov is the U.S. government's official web portal to all federal, state and local government web resources and services.